This demonstration page uses our WeatherBlox Daily Observations layout. Learn more.

Left ArrowRight Arrow

Hourly Observations for October 27, 2022

Temp ( °F °C ) Dew Point ( °F °C ) Humidity (%) Winds ( mph kmh ) Pressure ( in mb ) Visibility ( mi km ) Precip ( " mm )
12:53 am 00:53 Clear 59 15 30 -1.1 33 33 N 10 17 30.04 1017 10 16 0.00 0.00
1:53 am 01:53 Clear 59 15 29 -1.7 32 32 NNW 7 11 30.04 1017 10 16 0.00 0.00
2:53 am 02:53 Clear 58 14.4 29 -1.7 33 33 NNW 10 17 30.04 1017 10 16 0.00 0.00
3:53 am 03:53 Clear 57 13.9 29 -1.7 34 34 NNW 6 9 30.03 1017 10 16 0.00 0.00
4:53 am 04:53 Clear 56 13.3 29 -1.7 35 35 NNW 7 11 30.03 1017 10 16 0.00 0.00
5:53 am 05:53 Clear 56 13.3 29 -1.7 35 35 NNW 7 11 30.04 1017 10 16 0.00 0.00
6:53 am 06:53 Clear 56 13.3 28 -2.2 34 34 NNW 7 11 30.05 1018 10 16 0.00 0.00
7:53 am 07:53 Sunny 56 13.3 28 -2.2 34 34 NNW 8 13 30.05 1018 10 16 0.00 0.00
8:53 am 08:53 Sunny 59 15 28 -2.2 30 30 NNW 9 15 30.06 1018 10 16 0.00 0.00
9:53 am 09:53 Sunny 63 17.2 27 -2.8 25 25 N 12 19 30.07 1018 10 16 0.00 0.00
10:53 am 10:53 Sunny 66 18.9 26 -3.3 22 22 N 7 11 30.06 1018 10 16 0.00 0.00
11:53 am 11:53 Sunny 68 20 25 -3.9 20 20 N 12 19 30.05 1018 10 16 0.00 0.00
12:53 pm 12:53 Sunny 71 21.7 25 -3.9 18 18 NNE 6 9 30.04 1017 10 16 0.00 0.00
1:53 pm 13:53 Sunny 74 23.3 22 -5.6 14 14 NE 7 11 30.01 1016 10 16 0.00 0.00
2:53 pm 14:53 Sunny 74 23.3 21 -6.1 14 14 Calm 29.99 1016 10 16 0.00 0.00
3:53 pm 15:53 Sunny 76 24.4 22 -5.6 13 13 NNW 3 6 29.98 1015 10 16 0.00 0.00
4:53 pm 16:53 Sunny 74 23.3 20 -6.7 13 13 SSW 3 6 29.98 1015 10 16 0.00 0.00
5:53 pm 17:53 Sunny 71 21.7 22 -5.6 16 16 S 5 7 29.97 1015 10 16 0.00 0.00
6:53 pm 18:53 Clear 64 17.8 25 -3.9 22 22 Calm 29.98 1015 10 16 0.00 0.00
7:53 pm 19:53 Clear 58 14.4 24 -4.4 27 27 W 3 6 30.00 1016 10 16 0.00 0.00
8:53 pm 20:53 Clear 54 12.2 25 -3.9 32 32 Calm 30.02 1017 10 16 0.00 0.00
9:53 pm 21:53 Clear 52 11.1 24 -4.4 33 33 NNE 5 7 30.03 1017 10 16 0.00 0.00
10:53 pm 22:53 Clear 50 10 25 -3.9 37 37 Calm 30.06 1018 10 16 0.00 0.00
11:53 pm 23:53 Clear 48 8.9 26 -3.3 42 42 Calm 30.06 1018 10 16 0.00 0.00

Powered by AerisWeather